Regional Weather Roundup
Issued by NWS

Home | Current Version | Previous Version | Text Only | Print | Product List | Glossary On
Versions: 1 2 3 4 5 6 7 8 9 10 11 12 13 14 15 16 17 18 19 20 21 22 23 24 25 26 27 28 29 30 31 32 33 34 35 36 37 38 39 40 41 42 43 44 45 46 47 48 49 50
000
ASUS43 KLSX 241007
RWRMO

WEATHER SUMMARY FOR MISSOURI
NATIONAL WEATHER SERVICE SPRINGFIELD MO
500 AM CDT THU JUL 24 2014

NOTE: "FAIR" INDICATES FEW OR NO CLOUDS BELOW 12,000 FEET WITH NO
       SIGNIFICANT WEATHER AND/OR OBSTRUCTIONS TO VISIBILITY.
       CURRENT SKY AND/OR WEATHER CONDITIONS ARE NOT AVAILABLE FOR
       CHILLICOTHE AND FARMINGTON.

MOZ001>031-035>038-043-044-053-054-241100-
...NORTHERN AND WESTERN MISSOURI...

CITY           SKY/WX    TMP DP  RH WIND       PRES   REMARKS
KANSAS CTY INT PTCLDY    68  59  73 E9        30.12S
KANSAS C DTWN  CLEAR     68  61  78 E5        30.12R
LEE`S SUMMIT   CLEAR     65  60  84 E6        30.13R
ST JOSEPH      CLEAR     67  59  75 E5        30.13S
CHILLICOTHE      N/A     61  58  90 CALM      30.15S
KIRKSVILLE     CLEAR     56  54  93 N6        30.16R

$$
MOZ066>068-077>081-088>096-101>105-241100-
...SOUTHWEST MISSOURI...

CITY           SKY/WX    TMP DP  RH WIND       PRES   REMARKS
SPRINGFIELD    CLEAR     68  64  87 NE7       30.09R
JOPLIN         CLEAR     68  65  90 NE6       30.08R

$$
MOZ032>034-039>042-045>050-055>058-069>072-241100-
...CENTRAL MISSOURI...

CITY           SKY/WX    TMP DP  RH WIND       PRES   REMARKS
COLUMBIA       CLEAR     60  58  92 N5        30.13R
JEFFERSON CITY CLEAR     62  59  90 SW3       30.12R
ROLLA          CLEAR     61  57  87 E5        30.11R
SEDALIA        CLEAR     64  59  83 E3        30.13R
OSAGE BEACH    CLEAR     63  57  82 NE3       30.11R

$$
MOZ051-052-059>065-241100-
...EAST CENTRAL MISSOURI...

CITY           SKY/WX    TMP DP  RH WIND       PRES   REMARKS
ST LOUIS INTL  CLEAR     63  52  67 N6        30.11R
SPIRIT OF STL  CLEAR     57  54  89 CALM      30.11R
ST CHARLES     CLEAR     59  53  80 N9        30.11R

$$
MOZ072>076-082>087-097>100-106>115-241100-
...SOUTH CENTRAL AND SOUTHEAST MISSOURI...

CITY           SKY/WX    TMP DP  RH WIND       PRES   REMARKS
CAPE GIRARDEAU CLEAR     61  53  75 CALM      30.05R
FARMINGTON     CLEAR     59  52  77 N3        30.12R
POPLAR BLUFF   MOCLDY    65  50  58 N7        30.05R
WEST PLAINS    MOCLDY    66  60  81 NE7       30.10R

$$



USA.gov is the U.S. government's official web portal to all federal, state and local government web resources and services.